| time (UTC) | temp F | wind direction | speed MPH | gust MPH | rain 1hr in | rain 24hr in | rain mn in | humidity % | barometer mb |
| 20260510204045 | 67 | 20 | 4.0 | 6.0 | 0.00 | 0.00 | 0.00 | 36 | 1022.3 |
| 20260510203542 | 66 | 91 | 3.0 | 3.0 | 0.00 | 0.00 | 0.00 | 36 | 1022.3 |
| 20260510203039 | 65 | 33 | 4.0 | 5.0 | 0.00 | 0.00 | 0.00 | 36 | 1022.6 |
| 20260510202537 | 65 | 54 | 4.0 | 5.0 | 0.00 | 0.00 | 0.00 | 36 | 1022.3 |
| 20260510202034 | 65 | 113 | 1.0 | 2.0 | 0.00 | 0.00 | 0.00 | 37 | 1022.3 |
| 20260510201531 | 66 | 8 | 4.0 | 5.0 | 0.00 | 0.00 | 0.00 | 36 | 1022.6 |
| 20260510201028 | 65 | 4 | 5.0 | 8.0 | 0.00 | 0.00 | 0.00 | 35 | 1022.6 |
| 20260510200523 | 65 | 32 | 3.0 | 3.0 | 0.00 | 0.00 | 0.00 | 34 | 1022.6 |
| 20260510200022 | 65 | 38 | 5.0 | 8.0 | 0.00 | 0.00 | 0.00 | 33 | 1022.6 |
| 20260510195519 | 66 | 7 | 3.0 | 7.0 | 0.00 | 0.00 | 0.00 | 36 | 1022.6 |
| 20260510195014 | 65 | 3 | 2.0 | 3.0 | 0.00 | 0.00 | 0.00 | 37 | 1022.6 |
| 20260510194510 | 66 | 22 | 5.0 | 6.0 | 0.00 | 0.00 | 0.00 | 36 | 1023.0 |
| 20260510194006 | 65 | 114 | 1.0 | 1.0 | 0.00 | 0.00 | 0.00 | 36 | 1023.0 |
| 20260510193501 | 65 | 63 | 3.0 | 3.0 | 0.00 | 0.00 | 0.00 | 38 | 1023.0 |
| 20260510192957 | 65 | 51 | 5.0 | 6.0 | 0.00 | 0.00 | 0.00 | 36 | 1023.0 |
| 20260510192452 | 65 | 86 | 2.0 | 3.0 | 0.00 | 0.00 | 0.00 | 37 | 1023.0 |
| 20260510191948 | 66 | 133 | 0.0 | 1.0 | 0.00 | 0.00 | 0.00 | 36 | 1023.0 |
| 20260510191444 | 64 | 116 | 1.0 | 2.0 | 0.00 | 0.00 | 0.00 | 38 | 1023.0 |
| 20260510190942 | 64 | 359 | 4.0 | 5.0 | 0.00 | 0.00 | 0.00 | 38 | 1023.0 |
| 20260510190439 | 65 | 27 | 2.0 | 3.0 | 0.00 | 0.00 | 0.00 | 39 | 1023.0 |
| 20260510185936 | 65 | 30 | 2.0 | 3.0 | 0.00 | 0.00 | 0.00 | 39 | 1023.0 |
| 20260510185433 | 67 | 100 | 1.0 | 2.0 | 0.00 | 0.00 | 0.00 | 36 | 1023.0 |
| 20260510184930 | 66 | 128 | 1.0 | 1.0 | 0.00 | 0.00 | 0.00 | 38 | 1023.0 |
| 20260510184428 | 66 | 100 | 1.0 | 1.0 | 0.00 | 0.00 | 0.00 | 35 | 1023.0 |
| 20260510183927 | 65 | 104 | 1.0 | 2.0 | 0.00 | 0.00 | 0.00 | 37 | 1023.0 |
| 20260510183424 | 65 | 113 | 1.0 | 2.0 | 0.00 | 0.00 | 0.00 | 37 | 1023.0 |
| 20260510182918 | 65 | 82 | 3.0 | 3.0 | 0.00 | 0.00 | 0.00 | 38 | 1022.6 |
| 20260510182415 | 64 | 75 | 2.0 | 2.0 | 0.00 | 0.00 | 0.00 | 38 | 1023.0 |
| 20260510181911 | 64 | 30 | 2.0 | 2.0 | 0.00 | 0.00 | 0.00 | 37 | 1023.0 |
| 20260510181409 | 64 | 40 | 3.0 | 5.0 | 0.00 | 0.00 | 0.00 | 36 | 1023.0 |
| 20260510180904 | 65 | 17 | 2.0 | 3.0 | 0.00 | 0.00 | 0.00 | 38 | 1023.0 |
| 20260510180402 | 64 | 104 | 3.0 | 3.0 | 0.00 | 0.00 | 0.00 | 34 | 1023.0 |
| 20260510175858 | 64 | 50 | 2.0 | 3.0 | 0.00 | 0.00 | 0.00 | 36 | 1023.0 |
| 20260510175355 | 64 | 64 | 3.0 | 3.0 | 0.00 | 0.00 | 0.00 | 36 | 1023.0 |
| 20260510174850 | 65 | 114 | 1.0 | 2.0 | 0.00 | 0.00 | 0.00 | 37 | 1023.3 |
| 20260510174348 | 64 | 116 | 1.0 | 2.0 | 0.00 | 0.00 | 0.00 | 36 | 1023.0 |
| 20260510173844 | 65 | 120 | 2.0 | 2.0 | 0.00 | 0.00 | 0.00 | 36 | 1023.0 |
| 20260510173340 | 65 | 112 | 2.0 | 2.0 | 0.00 | 0.00 | 0.00 | 36 | 1023.0 |
| 20260510172836 | 65 | 26 | 3.0 | 5.0 | 0.00 | 0.00 | 0.00 | 37 | 1023.0 |
| 20260510172332 | 64 | 132 | 1.0 | 1.0 | 0.00 | 0.00 | 0.00 | 36 | 1023.0 |
| 20260510171830 | 65 | 58 | 5.0 | 6.0 | 0.00 | 0.00 | 0.00 | 35 | 1023.3 |
| 20260510171327 | 64 | 124 | 1.0 | 1.0 | 0.00 | 0.00 | 0.00 | 37 | 1023.0 |
| 20260510170824 | 64 | 125 | 1.0 | 1.0 | 0.00 | 0.00 | 0.00 | 37 | 1023.0 |
| 20260510170320 | 63 | 339 | 4.0 | 5.0 | 0.00 | 0.00 | 0.00 | 39 | 1023.0 |
| 20260510165815 | 64 | 135 | 1.0 | 2.0 | 0.00 | 0.00 | 0.00 | 40 | 1023.0 |
| 20260510165312 | 64 | 124 | 3.0 | 3.0 | 0.00 | 0.00 | 0.00 | 37 | 1023.0 |
| 20260510164809 | 64 | 92 | 1.0 | 2.0 | 0.00 | 0.00 | 0.00 | 38 | 1023.0 |
| 20260510164307 | 63 | 128 | 0.0 | 0.0 | 0.00 | 0.00 | 0.00 | 39 | 1023.0 |
| 20260510163806 | 62 | 114 | 1.0 | 1.0 | 0.00 | 0.00 | 0.00 | 39 | 1023.0 |
| 20260510163302 | 62 | 118 | 1.0 | 1.0 | 0.00 | 0.00 | 0.00 | 40 | 1022.6 |
| 20260510162802 | 62 | 57 | 4.0 | 5.0 | 0.00 | 0.00 | 0.00 | 38 | 1023.0 |
| 20260510162259 | 64 | 82 | 2.0 | 2.0 | 0.00 | 0.00 | 0.00 | 39 | 1022.6 |
| 20260510161755 | 63 | 124 | 0.0 | 1.0 | 0.00 | 0.00 | 0.00 | 38 | 1022.6 |
| 20260510161251 | 63 | 122 | 2.0 | 2.0 | 0.00 | 0.00 | 0.00 | 38 | 1023.0 |
| 20260510160748 | 62 | 49 | 5.0 | 8.0 | 0.00 | 0.00 | 0.00 | 38 | 1023.0 |
| 20260510160244 | 62 | 56 | 1.0 | 1.0 | 0.00 | 0.00 | 0.00 | 39 | 1022.6 |
| 20260510155740 | 62 | 98 | 2.0 | 3.0 | 0.00 | 0.00 | 0.00 | 37 | 1022.6 |
| 20260510155236 | 61 | 79 | 1.0 | 2.0 | 0.00 | 0.00 | 0.00 | 41 | 1022.6 |
| 20260510154732 | 61 | 60 | 3.0 | 3.0 | 0.00 | 0.00 | 0.00 | 38 | 1022.6 |
| 20260510154228 | 61 | 58 | 3.0 | 3.0 | 0.00 | 0.00 | 0.00 | 38 | 1022.6 |
| 20260510153723 | 61 | 75 | 2.0 | 2.0 | 0.00 | 0.00 | 0.00 | 39 | 1022.6 |
| 20260510153219 | 62 | 53 | 3.0 | 3.0 | 0.00 | 0.00 | 0.00 | 38 | 1022.6 |
| 20260510152716 | 62 | 117 | 2.0 | 2.0 | 0.00 | 0.00 | 0.00 | 38 | 1022.6 |
| 20260510152212 | 62 | 93 | 1.0 | 1.0 | 0.00 | 0.00 | 0.00 | 38 | 1022.6 |
| 20260510151709 | 62 | 40 | 5.0 | 6.0 | 0.00 | 0.00 | 0.00 | 38 | 1022.3 |
| 20260510151208 | 62 | 129 | 1.0 | 1.0 | 0.00 | 0.00 | 0.00 | 39 | 1022.3 |
| 20260510150703 | 61 | 86 | 2.0 | 2.0 | 0.00 | 0.00 | 0.00 | 40 | 1022.3 |
| 20260510150158 | 61 | 100 | 3.0 | 5.0 | 0.00 | 0.00 | 0.00 | 38 | 1022.3 |
| 20260510145655 | 60 | 101 | 2.0 | 2.0 | 0.00 | 0.00 | 0.00 | 39 | 1022.3 |
| 20260510145151 | 59 | 88 | 1.0 | 1.0 | 0.00 | 0.00 | 0.00 | 40 | 1022.3 |
| 20260510144647 | 60 | 126 | 1.0 | 1.0 | 0.00 | 0.00 | 0.00 | 42 | 1022.3 |
| 20260510144144 | 59 | 144 | 1.0 | 2.0 | 0.00 | 0.00 | 0.00 | 41 | 1021.9 |
| 20260510143639 | 59 | 58 | 3.0 | 3.0 | 0.00 | 0.00 | 0.00 | 40 | 1022.3 |
| 20260510143136 | 59 | 124 | 1.0 | 1.0 | 0.00 | 0.00 | 0.00 | 42 | 1022.3 |
| 20260510142632 | 58 | 109 | 1.0 | 1.0 | 0.00 | 0.00 | 0.00 | 43 | 1022.3 |
| 20260510142129 | 58 | 88 | 2.0 | 2.0 | 0.00 | 0.00 | 0.00 | 41 | 1022.3 |
| 20260510141626 | 58 | 101 | 1.0 | 1.0 | 0.00 | 0.00 | 0.00 | 44 | 1022.3 |
| 20260510141124 | 58 | 114 | 1.0 | 1.0 | 0.00 | 0.00 | 0.00 | 45 | 1022.3 |
| 20260510140620 | 58 | 116 | 1.0 | 1.0 | 0.00 | 0.00 | 0.00 | 45 | 1022.3 |
| 20260510140119 | 58 | 117 | 1.0 | 2.0 | 0.00 | 0.00 | 0.00 | 45 | 1022.3 |
| 20260510135615 | 58 | 104 | 1.0 | 2.0 | 0.00 | 0.00 | 0.00 | 43 | 1022.3 |
| 20260510135111 | 58 | 73 | 2.0 | 3.0 | 0.00 | 0.00 | 0.00 | 45 | 1021.9 |
| 20260510134608 | 58 | 113 | 1.0 | 1.0 | 0.00 | 0.00 | 0.00 | 46 | 1021.9 |
| 20260510134106 | 58 | 103 | 1.0 | 1.0 | 0.00 | 0.00 | 0.00 | 46 | 1021.9 |
| 20260510133602 | 57 | 114 | 1.0 | 2.0 | 0.00 | 0.00 | 0.00 | 46 | 1021.9 |
| 20260510133057 | 57 | 119 | 1.0 | 1.0 | 0.00 | 0.00 | 0.00 | 46 | 1021.9 |
| 20260510132554 | 57 | 122 | 1.0 | 2.0 | 0.00 | 0.00 | 0.00 | 48 | 1021.9 |
| 20260510132051 | 57 | 122 | 1.0 | 1.0 | 0.00 | 0.00 | 0.00 | 47 | 1022.3 |
| 20260510131549 | 56 | 104 | 2.0 | 2.0 | 0.00 | 0.00 | 0.00 | 48 | 1021.9 |
| 20260510131046 | 56 | 118 | 1.0 | 2.0 | 0.00 | 0.00 | 0.00 | 50 | 1021.9 |
| 20260510130542 | 56 | 100 | 1.0 | 2.0 | 0.00 | 0.00 | 0.00 | 48 | 1021.6 |
| 20260510130040 | 56 | 99 | 3.0 | 5.0 | 0.00 | 0.00 | 0.00 | 49 | 1021.9 |
| 20260510125536 | 56 | 24 | 3.0 | 3.0 | 0.00 | 0.00 | 0.00 | 47 | 1021.3 |
| 20260510125032 | 56 | 83 | 1.0 | 2.0 | 0.00 | 0.00 | 0.00 | 47 | 1021.6 |
| 20260510124529 | 56 | 126 | 1.0 | 2.0 | 0.00 | 0.00 | 0.00 | 46 | 1021.3 |
| 20260510124026 | 56 | 119 | 2.0 | 3.0 | 0.00 | 0.00 | 0.00 | 46 | 1021.3 |
| 20260510123521 | 56 | 64 | 3.0 | 5.0 | 0.00 | 0.00 | 0.00 | 46 | 1021.3 |
| 20260510123017 | 56 | 87 | 2.0 | 2.0 | 0.00 | 0.00 | 0.00 | 48 | 1020.5 |
| 20260510122513 | 56 | 80 | 2.0 | 2.0 | 0.00 | 0.00 | 0.00 | 47 | 1020.5 |
| 20260510122010 | 56 | 73 | 2.0 | 2.0 | 0.00 | 0.00 | 0.00 | 46 | 1020.5 |
| 20260510121507 | 56 | 73 | 2.0 | 3.0 | 0.00 | 0.00 | 0.00 | 45 | 1020.2 |
| 20260510121004 | 56 | 80 | 2.0 | 2.0 | 0.00 | 0.00 | 0.00 | 47 | 1020.2 |
| 20260510120501 | 56 | 99 | 2.0 | 3.0 | 0.00 | 0.00 | 0.00 | 47 | 1020.2 |
| 20260510115957 | 56 | 107 | 1.0 | 2.0 | 0.00 | 0.00 | 0.00 | 48 | 1020.2 |
| 20260510115455 | 56 | 84 | 2.0 | 2.0 | 0.00 | 0.00 | 0.00 | 46 | 1019.8 |
| 20260510114950 | 56 | 108 | 2.0 | 2.0 | 0.00 | 0.00 | 0.00 | 47 | 1019.5 |
| 20260510114447 | 56 | 93 | 1.0 | 2.0 | 0.00 | 0.00 | 0.00 | 47 | 1019.8 |
| 20260510113943 | 56 | 61 | 2.0 | 3.0 | 0.00 | 0.00 | 0.00 | 47 | 1019.5 |
| 20260510113438 | 56 | 87 | 2.0 | 2.0 | 0.00 | 0.00 | 0.00 | 47 | 1019.5 |
| 20260510112936 | 56 | 81 | 2.0 | 2.0 | 0.00 | 0.00 | 0.00 | 47 | 1019.5 |
| 20260510112433 | 56 | 80 | 1.0 | 2.0 | 0.00 | 0.00 | 0.00 | 48 | 1019.5 |
| 20260510111929 | 57 | 82 | 2.0 | 2.0 | 0.00 | 0.00 | 0.00 | 47 | 1019.1 |
| 20260510111425 | 57 | 55 | 3.0 | 5.0 | 0.00 | 0.00 | 0.00 | 48 | 1018.8 |
| 20260510110921 | 57 | 107 | 3.0 | 5.0 | 0.00 | 0.00 | 0.00 | 51 | 1018.8 |
| 20260510110418 | 57 | 56 | 2.0 | 2.0 | 0.00 | 0.00 | 0.00 | 50 | 1019.1 |
| 20260510105914 | 57 | 85 | 3.0 | 3.0 | 0.00 | 0.00 | 0.00 | 50 | 1019.1 |
| 20260510105415 | 58 | 60 | 3.0 | 3.0 | 0.00 | 0.00 | 0.00 | 49 | 1019.1 |
| 20260510104905 | 58 | 92 | 2.0 | 2.0 | 0.00 | 0.00 | 0.00 | 48 | 1019.1 |
| 20260510104402 | 58 | 72 | 2.0 | 2.0 | 0.00 | 0.00 | 0.00 | 48 | 1018.8 |
| 20260510103858 | 58 | 84 | 2.0 | 2.0 | 0.00 | 0.00 | 0.00 | 48 | 1018.8 |
| 20260510103356 | 58 | 91 | 2.0 | 2.0 | 0.00 | 0.00 | 0.00 | 47 | 1018.8 |
| 20260510102851 | 58 | 99 | 1.0 | 2.0 | 0.00 | 0.00 | 0.00 | 48 | 1018.8 |
| 20260510102347 | 58 | 98 | 2.0 | 2.0 | 0.00 | 0.00 | 0.00 | 49 | 1018.8 |
| 20260510101844 | 58 | 83 | 2.0 | 3.0 | 0.00 | 0.00 | 0.00 | 50 | 1018.5 |
| 20260510101343 | 58 | 91 | 2.0 | 2.0 | 0.00 | 0.00 | 0.00 | 50 | 1018.5 |
| 20260510100838 | 58 | 75 | 2.0 | 2.0 | 0.00 | 0.00 | 0.00 | 50 | 1018.5 |
| 20260510100336 | 58 | 97 | 2.0 | 2.0 | 0.00 | 0.00 | 0.00 | 50 | 1018.5 |
| 20260510095832 | 59 | 74 | 2.0 | 2.0 | 0.00 | 0.00 | 0.00 | 49 | 1018.1 |
| 20260510095327 | 59 | 103 | 1.0 | 2.0 | 0.00 | 0.00 | 0.00 | 51 | 1018.1 |
| 20260510094826 | 59 | 74 | 2.0 | 2.0 | 0.00 | 0.00 | 0.00 | 51 | 1017.7 |
| 20260510094322 | 59 | 80 | 2.0 | 2.0 | 0.00 | 0.00 | 0.00 | 53 | 1017.7 |
| 20260510093819 | 58 | 80 | 3.0 | 3.0 | 0.00 | 0.00 | 0.00 | 54 | 1018.1 |
| 20260510093315 | 58 | 98 | 1.0 | 1.0 | 0.00 | 0.00 | 0.00 | 56 | 1018.1 |
| 20260510092811 | 59 | 116 | 1.0 | 2.0 | 0.00 | 0.00 | 0.00 | 58 | 1018.1 |
| 20260510092307 | 59 | 121 | 0.0 | 1.0 | 0.00 | 0.00 | 0.00 | 58 | 1017.7 |
| 20260510091803 | 59 | 81 | 4.0 | 6.0 | 0.00 | 0.00 | 0.00 | 58 | 1017.7 |
| 20260510091301 | 59 | 82 | 2.0 | 2.0 | 0.00 | 0.00 | 0.00 | 59 | 1017.7 |
| 20260510090756 | 60 | 89 | 1.0 | 2.0 | 0.00 | 0.00 | 0.00 | 58 | 1017.7 |
| 20260510090253 | 60 | 73 | 2.0 | 2.0 | 0.00 | 0.00 | 0.00 | 58 | 1017.7 |
| 20260510085749 | 60 | 103 | 1.0 | 1.0 | 0.00 | 0.00 | 0.00 | 58 | 1017.7 |
| 20260510085244 | 60 | 86 | 1.0 | 2.0 | 0.00 | 0.00 | 0.00 | 60 | 1017.7 |
| 20260510084740 | 60 | 101 | 2.0 | 2.0 | 0.00 | 0.00 | 0.00 | 59 | 1017.7 |
| 20260510084237 | 61 | 85 | 2.0 | 2.0 | 0.00 | 0.00 | 0.00 | 59 | 1017.3 |
| 20260510083733 | 61 | 75 | 2.0 | 2.0 | 0.00 | 0.00 | 0.00 | 60 | 1017.0 |
| 20260510083231 | 61 | 112 | 1.0 | 1.0 | 0.00 | 0.00 | 0.00 | 61 | 1017.0 |
| 20260510082726 | 61 | 65 | 3.0 | 3.0 | 0.00 | 0.00 | 0.00 | 61 | 1016.7 |
| 20260510082223 | 61 | 83 | 2.0 | 3.0 | 0.00 | 0.00 | 0.00 | 61 | 1017.0 |
| 20260510081722 | 61 | 36 | 3.0 | 5.0 | 0.00 | 0.00 | 0.00 | 62 | 1017.0 |
| 20260510081218 | 61 | 56 | 3.0 | 5.0 | 0.00 | 0.00 | 0.00 | 62 | 1016.7 |
| 20260510080713 | 62 | 73 | 2.0 | 3.0 | 0.00 | 0.00 | 0.00 | 62 | 1016.3 |
| 20260510080209 | 62 | 60 | 2.0 | 2.0 | 0.00 | 0.00 | 0.00 | 61 | 1016.3 |
| 20260510075706 | 62 | 88 | 1.0 | 2.0 | 0.00 | 0.00 | 0.00 | 60 | 1016.3 |
| 20260510075204 | 62 | 114 | 1.0 | 1.0 | 0.00 | 0.00 | 0.00 | 59 | 1016.3 |
| 20260510074701 | 63 | 86 | 3.0 | 5.0 | 0.00 | 0.00 | 0.00 | 58 | 1016.7 |
| 20260510074157 | 62 | 89 | 2.0 | 2.0 | 0.00 | 0.00 | 0.00 | 59 | 1016.7 |
| 20260510073654 | 62 | 57 | 2.0 | 2.0 | 0.00 | 0.00 | 0.00 | 60 | 1016.7 |
| 20260510073149 | 62 | 104 | 2.0 | 2.0 | 0.00 | 0.00 | 0.00 | 60 | 1016.3 |
| 20260510072646 | 62 | 115 | 1.0 | 1.0 | 0.00 | 0.00 | 0.00 | 60 | 1016.7 |
| 20260510072142 | 62 | 120 | 1.0 | 1.0 | 0.00 | 0.00 | 0.00 | 59 | 1016.3 |
| 20260510071638 | 62 | 123 | 0.0 | 0.0 | 0.00 | 0.00 | 0.00 | 59 | 1016.3 |
| 20260510071136 | 62 | 123 | 1.0 | 1.0 | 0.00 | 0.00 | 0.00 | 59 | 1016.0 |
| 20260510070633 | 62 | 126 | 0.0 | 1.0 | 0.00 | 0.00 | 0.00 | 59 | 1016.0 |
| 20260510070131 | 63 | 124 | 0.0 | 1.0 | 0.00 | 0.00 | 0.00 | 58 | 1016.0 |
| 20260510065626 | 63 | 116 | 1.0 | 1.0 | 0.00 | 0.00 | 0.00 | 57 | 1016.3 |
| 20260510065122 | 63 | 119 | 1.0 | 1.0 | 0.00 | 0.00 | 0.00 | 57 | 1016.0 |
| 20260510064619 | 64 | 117 | 1.0 | 1.0 | 0.00 | 0.00 | 0.00 | 57 | 1016.0 |
| 20260510064116 | 64 | 103 | 1.0 | 2.0 | 0.00 | 0.00 | 0.00 | 56 | 1016.0 |
| 20260510063612 | 65 | 106 | 1.0 | 1.0 | 0.00 | 0.00 | 0.00 | 55 | 1016.0 |
| 20260510063110 | 65 | 102 | 1.0 | 2.0 | 0.00 | 0.00 | 0.00 | 54 | 1016.0 |
| 20260510062605 | 66 | 117 | 1.0 | 1.0 | 0.00 | 0.00 | 0.00 | 53 | 1015.7 |
| 20260510062100 | 66 | 114 | 1.0 | 2.0 | 0.00 | 0.00 | 0.00 | 52 | 1015.7 |
| 20260510061552 | 66 | 114 | 2.0 | 2.0 | 0.00 | 0.00 | 0.00 | 51 | 1015.3 |
| 20260510061049 | 66 | 115 | 1.0 | 2.0 | 0.00 | 0.00 | 0.00 | 52 | 1016.0 |
| 20260510060544 | 67 | 125 | 1.0 | 1.0 | 0.00 | 0.00 | 0.00 | 52 | 1015.3 |
| 20260510060041 | 67 | 110 | 1.0 | 1.0 | 0.00 | 0.00 | 0.00 | 51 | 1015.3 |
| 20260510055537 | 67 | 110 | 2.0 | 3.0 | 0.00 | 0.00 | 0.00 | 50 | 1015.3 |
| 20260510055036 | 67 | 105 | 2.0 | 3.0 | 0.00 | 0.00 | 0.00 | 50 | 1015.7 |
| 20260510054531 | 67 | 117 | 2.0 | 2.0 | 0.00 | 0.00 | 0.00 | 52 | 1015.3 |
| 20260510054026 | 67 | 111 | 2.0 | 2.0 | 0.00 | 0.00 | 0.00 | 54 | 1015.7 |
| 20260510053521 | 64 | 69 | 4.0 | 5.0 | 0.00 | 0.00 | 0.00 | 63 | 1015.7 |
| 20260510053019 | 65 | 130 | 1.0 | 1.0 | 0.00 | 0.00 | 0.00 | 66 | 1015.7 |
| 20260510052514 | 66 | 134 | 0.0 | 0.0 | 0.00 | 0.00 | 0.00 | 63 | 1015.3 |
| 20260510052011 | 66 | 101 | 2.0 | 2.0 | 0.00 | 0.00 | 0.00 | 63 | 1015.3 |
| 20260510051506 | 66 | 148 | 0.0 | 0.0 | 0.00 | 0.00 | 0.00 | 63 | 1015.7 |
| 20260510051003 | 66 | 141 | 0.0 | 0.0 | 0.00 | 0.00 | 0.00 | 61 | 1015.7 |
| 20260510050501 | 67 | 122 | 1.0 | 1.0 | 0.00 | 0.00 | 0.00 | 60 | 1015.0 |
| 20260510045957 | 66 | 114 | 2.0 | 2.0 | 0.00 | 0.00 | 0.00 | 61 | 1015.3 |
| 20260510045455 | 67 | 168 | 3.0 | 3.0 | 0.00 | 0.00 | 0.00 | 61 | 1015.3 |
| 20260510044950 | 66 | 160 | 2.0 | 2.0 | 0.00 | 0.00 | 0.00 | 62 | 1015.0 |
| 20260510044448 | 67 | 266 | 4.0 | 5.0 | 0.00 | 0.00 | 0.00 | 59 | 1014.5 |
| 20260510043944 | 67 | 118 | 1.0 | 2.0 | 0.00 | 0.00 | 0.00 | 59 | 1014.2 |
| 20260510043440 | 67 | 110 | 1.0 | 2.0 | 0.00 | 0.00 | 0.00 | 58 | 1013.9 |
| 20260510042939 | 68 | 120 | 1.0 | 1.0 | 0.00 | 0.00 | 0.00 | 57 | 1013.9 |
| 20260510042434 | 67 | 120 | 1.0 | 1.0 | 0.00 | 0.00 | 0.00 | 58 | 1013.5 |
| 20260510041930 | 68 | 124 | 1.0 | 1.0 | 0.00 | 0.00 | 0.00 | 57 | 1013.5 |
| 20260510041427 | 68 | 119 | 1.0 | 1.0 | 0.00 | 0.00 | 0.00 | 57 | 1013.2 |
| 20260510040925 | 68 | 124 | 1.0 | 1.0 | 0.00 | 0.00 | 0.00 | 57 | 1013.2 |
| 20260510040421 | 68 | 128 | 0.0 | 1.0 | 0.00 | 0.00 | 0.00 | 56 | 1013.2 |
| 20260510035917 | 68 | 128 | 0.0 | 0.0 | 0.00 | 0.00 | 0.00 | 56 | 1013.2 |
| 20260510035413 | 68 | 127 | 1.0 | 1.0 | 0.00 | 0.00 | 0.00 | 56 | 1012.8 |
| 20260510034908 | 68 | 127 | 0.0 | 0.0 | 0.00 | 0.00 | 0.00 | 57 | 1012.8 |
| 20260510034407 | 67 | 125 | 0.0 | 0.0 | 0.00 | 0.00 | 0.00 | 58 | 1012.8 |
| 20260510033903 | 67 | 124 | 0.0 | 0.0 | 0.00 | 0.00 | 0.00 | 59 | 1012.8 |
| 20260510033359 | 67 | 126 | 0.0 | 0.0 | 0.00 | 0.00 | 0.00 | 60 | 1012.8 |
| 20260510032856 | 67 | 124 | 0.0 | 0.0 | 0.00 | 0.00 | 0.00 | 59 | 1012.8 |
| 20260510032353 | 67 | 117 | 0.0 | 0.0 | 0.00 | 0.00 | 0.00 | 59 | 1013.2 |
| 20260510031848 | 67 | 121 | 0.0 | 0.0 | 0.00 | 0.00 | 0.00 | 60 | 1012.8 |
| 20260510031344 | 67 | 125 | 0.0 | 0.0 | 0.00 | 0.00 | 0.00 | 61 | 1012.5 |
| 20260510030843 | 67 | 131 | 0.0 | 0.0 | 0.00 | 0.00 | 0.00 | 62 | 1012.5 |
| 20260510030340 | 67 | 129 | 0.0 | 0.0 | 0.00 | 0.00 | 0.00 | 61 | 1012.5 |
| 20260510025838 | 67 | 118 | 0.0 | 0.0 | 0.00 | 0.00 | 0.00 | 58 | 1012.8 |
| 20260510025335 | 68 | 124 | 0.0 | 0.0 | 0.00 | 0.00 | 0.00 | 56 | 1012.8 |
| 20260510024832 | 69 | 117 | 1.0 | 1.0 | 0.00 | 0.00 | 0.00 | 54 | 1013.2 |
| 20260510024329 | 69 | 81 | 2.0 | 2.0 | 0.00 | 0.00 | 0.00 | 55 | 1012.8 |
| 20260510023825 | 69 | 110 | 2.0 | 2.0 | 0.00 | 0.00 | 0.00 | 54 | 1012.8 |
| 20260510023321 | 69 | 131 | 1.0 | 2.0 | 0.00 | 0.00 | 0.00 | 54 | 1012.8 |
| 20260510022819 | 69 | 115 | 1.0 | 1.0 | 0.00 | 0.00 | 0.00 | 54 | 1012.5 |
| 20260510022318 | 69 | 127 | 1.0 | 1.0 | 0.00 | 0.00 | 0.00 | 54 | 1012.5 |
| 20260510021817 | 69 | 126 | 1.0 | 1.0 | 0.00 | 0.00 | 0.00 | 54 | 1012.2 |
| 20260510021315 | 69 | 115 | 1.0 | 1.0 | 0.00 | 0.00 | 0.00 | 54 | 1011.8 |
| 20260510020811 | 69 | 114 | 1.0 | 1.0 | 0.00 | 0.00 | 0.00 | 54 | 1011.5 |
| 20260510020306 | 69 | 103 | 0.0 | 0.0 | 0.00 | 0.00 | 0.00 | 53 | 1011.8 |
| 20260510015802 | 70 | 123 | 1.0 | 1.0 | 0.00 | 0.00 | 0.00 | 53 | 1011.5 |
| 20260510015258 | 69 | 73 | 3.0 | 6.0 | 0.00 | 0.00 | 0.00 | 53 | 1011.5 |
| 20260510014753 | 70 | 115 | 1.0 | 1.0 | 0.00 | 0.00 | 0.00 | 55 | 1011.5 |
| 20260510014251 | 71 | 118 | 1.0 | 1.0 | 0.00 | 0.00 | 0.00 | 52 | 1011.5 |
| 20260510013747 | 71 | 65 | 2.0 | 2.0 | 0.00 | 0.00 | 0.00 | 51 | 1011.5 |
| 20260510013243 | 71 | 129 | 1.0 | 1.0 | 0.00 | 0.00 | 0.00 | 52 | 1011.1 |
| 20260510012737 | 71 | 117 | 1.0 | 1.0 | 0.00 | 0.00 | 0.00 | 52 | 1011.1 |
| 20260510012232 | 71 | 122 | 1.0 | 1.0 | 0.00 | 0.00 | 0.00 | 51 | 1011.1 |
| 20260510011727 | 71 | 124 | 1.0 | 1.0 | 0.00 | 0.00 | 0.00 | 51 | 1011.1 |
| 20260510011222 | 72 | 125 | 1.0 | 1.0 | 0.00 | 0.00 | 0.00 | 51 | 1010.7 |
| 20260510010719 | 72 | 115 | 1.0 | 1.0 | 0.00 | 0.00 | 0.00 | 50 | 1010.7 |
| 20260510010216 | 72 | 124 | 1.0 | 1.0 | 0.00 | 0.00 | 0.00 | 50 | 1010.4 |
| 20260510005713 | 73 | 117 | 1.0 | 1.0 | 0.00 | 0.00 | 0.00 | 48 | 1010.7 |
| 20260510005209 | 73 | 104 | 2.0 | 2.0 | 0.00 | 0.00 | 0.00 | 48 | 1010.4 |
| 20260510004707 | 73 | 30 | 3.0 | 5.0 | 0.00 | 0.00 | 0.00 | 48 | 1010.4 |
| 20260510004205 | 74 | 83 | 2.0 | 3.0 | 0.00 | 0.00 | 0.00 | 47 | 1010.4 |
| 20260510003702 | 74 | 34 | 5.0 | 7.0 | 0.00 | 0.00 | 0.00 | 45 | 1010.4 |
| 20260510003158 | 75 | 39 | 6.0 | 7.0 | 0.00 | 0.00 | 0.00 | 45 | 1010.4 |
| 20260510002657 | 75 | 9 | 4.0 | 5.0 | 0.00 | 0.00 | 0.00 | 46 | 1010.4 |
| 20260510002155 | 75 | 59 | 5.0 | 6.0 | 0.00 | 0.00 | 0.00 | 44 | 1010.0 |
| 20260510001651 | 76 | 54 | 5.0 | 7.0 | 0.00 | 0.00 | 0.00 | 44 | 1010.0 |
| 20260510001145 | 76 | 80 | 3.0 | 3.0 | 0.00 | 0.00 | 0.00 | 43 | 1010.0 |
| 20260510000645 | 76 | 74 | 3.0 | 5.0 | 0.00 | 0.00 | 0.00 | 43 | 1010.0 |
| 20260510000143 | 77 | 17 | 6.0 | 7.0 | 0.00 | 0.00 | 0.00 | 42 | 1010.0 |
| 20260509235639 | 78 | 52 | 7.0 | 8.0 | 0.00 | 0.00 | 0.00 | 41 | 1010.0 |
| 20260509235136 | 78 | 317 | 6.0 | 7.0 | 0.00 | 0.00 | 0.00 | 40 | 1009.7 |
| 20260509234631 | 78 | 293 | 4.0 | 5.0 | 0.00 | 0.00 | 0.00 | 41 | 1009.7 |
| 20260509234129 | 79 | 133 | 1.0 | 2.0 | 0.00 | 0.00 | 0.00 | 41 | 1009.4 |
| 20260509233627 | 79 | 287 | 5.0 | 6.0 | 0.00 | 0.00 | 0.00 | 40 | 1009.4 |
| 20260509233124 | 79 | 351 | 4.0 | 5.0 | 0.00 | 0.00 | 0.00 | 39 | 1009.4 |
| 20260509232620 | 80 | 359 | 4.0 | 6.0 | 0.00 | 0.00 | 0.00 | 38 | 1009.4 |
| 20260509232117 | 80 | 199 | 2.0 | 2.0 | 0.00 | 0.00 | 0.00 | 37 | 1009.4 |
| 20260509231614 | 80 | 275 | 3.0 | 5.0 | 0.00 | 0.00 | 0.00 | 36 | 1009.0 |
| 20260509231112 | 80 | 290 | 3.0 | 3.0 | 0.00 | 0.00 | 0.00 | 36 | 1009.4 |
| 20260509230608 | 80 | 304 | 3.0 | 3.0 | 0.00 | 0.00 | 0.00 | 36 | 1009.0 |
| 20260509230105 | 80 | 216 | 5.0 | 6.0 | 0.00 | 0.00 | 0.00 | 34 | 1009.0 |
| 20260509225601 | 81 | 197 | 3.0 | 5.0 | 0.00 | 0.00 | 0.00 | 34 | 1009.0 |
| 20260509225056 | 81 | 252 | 4.0 | 5.0 | 0.00 | 0.00 | 0.00 | 34 | 1009.4 |
| 20260509224552 | 81 | 288 | 5.0 | 7.0 | 0.00 | 0.00 | 0.00 | 34 | 1009.4 |
| 20260509224049 | 81 | 212 | 4.0 | 5.0 | 0.00 | 0.00 | 0.00 | 35 | 1008.7 |
| 20260509223546 | 81 | 245 | 6.0 | 7.0 | 0.00 | 0.00 | 0.00 | 35 | 1009.0 |
| 20260509223044 | 81 | 289 | 6.0 | 7.0 | 0.00 | 0.00 | 0.00 | 34 | 1008.7 |
| 20260509222539 | 82 | 228 | 3.0 | 5.0 | 0.00 | 0.00 | 0.00 | 35 | 1009.0 |
| 20260509222036 | 82 | 281 | 6.0 | 7.0 | 0.00 | 0.00 | 0.00 | 35 | 1009.4 |
| 20260509221532 | 82 | 251 | 10.0 | 13.0 | 0.00 | 0.00 | 0.00 | 33 | 1008.7 |
| 20260509221028 | 82 | 233 | 6.0 | 8.0 | 0.00 | 0.00 | 0.00 | 32 | 1009.0 |
| 20260509220524 | 83 | 210 | 8.0 | 10.0 | 0.00 | 0.00 | 0.00 | 30 | 1008.7 |
| 20260509220020 | 83 | 298 | 8.0 | 10.0 | 0.00 | 0.00 | 0.00 | 31 | 1009.0 |
| 20260509215515 | 84 | 269 | 7.0 | 9.0 | 0.00 | 0.00 | 0.00 | 31 | 1008.7 |
| 20260509215013 | 84 | 296 | 8.0 | 10.0 | 0.00 | 0.00 | 0.00 | 33 | 1008.7 |
| 20260509214510 | 83 | 272 | 10.0 | 13.0 | 0.00 | 0.00 | 0.00 | 32 | 1008.7 |
| 20260509214007 | 83 | 232 | 8.0 | 10.0 | 0.00 | 0.00 | 0.00 | 32 | 1008.7 |
| 20260509213503 | 83 | 241 | 4.0 | 5.0 | 0.00 | 0.00 | 0.00 | 32 | 1008.7 |
| 20260509213000 | 84 | 261 | 7.0 | 9.0 | 0.00 | 0.00 | 0.00 | 32 | 1008.7 |
| 20260509212457 | 83 | 267 | 6.0 | 7.0 | 0.00 | 0.00 | 0.00 | 32 | 1009.0 |
| 20260509211953 | 84 | 192 | 3.0 | 3.0 | 0.00 | 0.00 | 0.00 | 34 | 1008.7 |
| 20260509211449 | 83 | 179 | 4.0 | 6.0 | 0.00 | 0.00 | 0.00 | 35 | 1008.7 |
| 20260509210945 | 84 | 270 | 10.0 | 13.0 | 0.00 | 0.00 | 0.00 | 33 | 1008.7 |
| 20260509210437 | 84 | 251 | 8.0 | 10.0 | 0.00 | 0.00 | 0.00 | 33 | 1008.7 |
| 20260509205933 | 84 | 271 | 6.0 | 7.0 | 0.00 | 0.00 | 0.00 | 35 | 1008.7 |
| 20260509205428 | 84 | 14 | 7.0 | 10.0 | 0.00 | 0.00 | 0.00 | 34 | 1008.7 |
| 20260509204923 | 84 | 286 | 8.0 | 11.0 | 0.00 | 0.00 | 0.00 | 33 | 1009.0 |
| 20260509204420 | 83 | 289 | 7.0 | 9.0 | 0.00 | 0.00 | 0.00 | 33 | 1009.0 |